GFSFLT1_850_thetae_276.txt.gz
Theta_e
308 307 308 307 310 310 310 310 313 313 314 315 316 317 318 318 319 318 320 326 328 329 331 333 333 334 335 334 331 326 320 320 322
304 305 307 306 307 308 308 309 310 311 314 312 314 315 315 316 317 316 315 320 325 326 329 331 332 333 333 334 335 331 325 320 320
301 302 305 305 306 307 307 306 307 308 310 311 312 312 313 314 314 315 315 314 321 325 326 328 330 331 332 334 336 334 329 321 323
296 298 300 304 305 306 305 305 305 306 307 308 310 308 309 310 312 314 316 314 314 322 324 326 327 330 332 333 335 337 332 322 333
296 295 297 300 301 302 304 303 303 304 304 304 304 304 306 308 309 312 313 313 314 314 319 322 325 326 331 333 334 336 335 327 331
295 294 294 295 295 298 299 300 302 301 300 298 298 299 300 305 307 309 310 311 312 314 315 318 320 326 328 332 334 335 336 334 329
293 293 293 293 293 293 293 295 296 296 296 297 297 298 299 300 304 306 308 309 310 312 313 316 317 324 328 330 333 335 337 336 330
293 293 293 293 293 293 293 293 293 293 294 295 296 297 298 298 301 304 305 306 307 309 311 312 314 319 327 329 331 333 336 338 330
293 293 293 293 293 293 293 293 293 293 294 295 296 296 297 297 298 300 302 303 303 307 310 311 313 317 322 329 329 332 334 336 333
293 294 294 294 294 294 294 293 293 292 295 295 295 296 296 297 298 298 300 302 302 304 308 310 311 315 321 327 326 329 332 334 333
293 294 294 294 294 294 294 294 293 293 293 294 295 295 296 297 297 298 298 301 301 302 304 308 309 314 320 325 323 324 328 331 332
293 294 294 295 295 295 294 294 294 294 293 294 295 296 295 296 297 297 298 299 301 302 302 302 305 312 323 324 322 322 325 329 330
293 294 295 295 294 294 294 293 293 292 294 294 295 295 295 296 296 297 297 298 300 301 302 301 304 316 321 321 321 321 322 325 331
294 295 294 295 295 294 293 294 293 293 294 295 296 296 296 296 296 297 297 298 299 301 302 301 303 314 318 320 319 320 319 322 324
295 295 295 295 295 294 294 293 294 293 294 295 296 296 296 297 297 298 298 298 299 301 302 301 302 310 315 314 319 320 320 319 320
294 295 294 295 295 293 295 295 293 294 295 296 296 296 297 298 298 298 299 298 300 301 301 301 301 306 313 313 317 320 317 315 315
295 294 295 294 294 295 294 294 294 296 296 295 296 296 297 298 298 298 298 299 300 302 301 301 301 305 311 311 312 317 315 315 314
294 294 294 295 295 295 296 296 297 296 296 296 296 296 297 297 297 299 299 300 301 302 301 302 301 305 309 309 308 313 313 313 313
294 294 294 295 296 296 296 296 296 297 297 297 297 297 297 297 297 298 299 300 301 301 301 302 302 306 308 307 307 307 310 306 307
292 293 293 295 295 296 295 296 296 297 297 296 297 297 296 296 297 297 298 300 301 301 301 302 307 308 309 309 307 306 306 305 305

GFSFLT1_850_thetae_282.txt.gz
Theta_e
306 306 308 308 310 311 310 311 311 312 312 313 312 315 316 315 315 316 317 318 320 321 326 328 331 332 334 334 334 334 335 333 325
299 304 305 306 308 308 307 309 310 310 310 311 311 312 313 313 312 312 312 315 316 317 321 323 327 330 331 334 334 334 335 335 332
296 297 298 303 304 304 305 306 307 308 307 307 308 307 307 308 309 309 308 310 313 313 316 321 323 326 329 331 333 334 335 337 337
297 296 296 300 300 300 303 302 303 304 305 307 303 299 300 300 303 304 303 306 307 309 315 318 321 323 326 328 330 332 334 336 338
297 297 296 296 296 297 296 298 298 299 299 296 295 295 296 300 299 301 302 301 303 307 310 315 318 319 322 325 328 329 331 334 336
297 296 296 296 296 296 296 296 296 297 297 297 297 297 299 300 300 300 301 300 301 306 310 312 315 317 319 322 324 326 328 332 335
296 296 296 296 296 296 297 297 297 298 298 298 298 299 299 299 300 300 300 300 301 304 308 311 313 315 316 318 321 324 326 329 334
296 295 295 295 296 297 297 298 298 298 298 298 298 298 298 299 300 300 299 299 301 304 306 308 311 314 315 316 318 321 322 329 331
295 296 296 296 297 297 297 298 298 297 297 297 297 297 298 298 299 299 300 300 301 302 305 307 310 312 312 315 317 319 321 324 330
295 296 296 297 297 297 297 297 297 297 297 297 297 297 297 298 298 299 299 300 300 301 304 306 308 310 312 314 316 317 320 325 329
295 296 297 297 297 296 296 296 296 296 296 297 297 297 297 298 298 299 299 299 300 301 302 305 306 309 311 312 315 316 318 323 328
295 296 296 295 296 295 296 296 295 295 296 298 297 298 298 298 298 299 299 299 300 300 301 302 304 307 310 312 312 315 316 321 327
296 296 296 295 296 296 296 296 296 296 296 298 298 298 298 299 299 299 299 299 300 300 301 301 302 304 308 310 310 313 315 320 327
296 296 297 295 295 296 296 297 297 296 296 297 298 297 299 299 299 299 299 299 300 300 301 301 301 302 306 308 309 311 316 322 327
296 296 296 297 297 297 296 296 296 297 296 297 296 297 298 299 299 299 299 299 299 301 301 301 301 301 302 303 305 313 320 324 325
295 295 296 296 296 295 296 296 296 296 296 297 297 297 299 299 298 298 298 299 299 300 301 301 301 303 303 302 306 318 321 323 323
294 294 295 295 295 295 295 296 296 296 297 296 297 297 298 298 298 299 299 298 299 301 301 301 302 303 304 305 311 317 319 322 321
294 294 294 294 294 295 295 295 295 296 297 297 298 297 296 296 298 298 298 299 300 300 301 302 303 303 305 306 312 316 318 319 320
294 294 294 294 294 295 295 295 294 295 295 295 297 297 297 296 297 297 297 298 299 301 302 303 305 306 307 309 313 314 316 315 311
295 294 294 294 294 294 294 295 295 294 294 294 295 296 297 297 296 296 297 297 299 300 303 303 304 306 307 310 311 312 312 311 311

GFSFLT1_850_thetae_285.txt.gz
Theta_e
300 306 307 307 308 309 309 309 310 311 313 313 313 313 314 314 314 313 314 315 316 319 320 325 328 330 332 333 335 335 335 336 337
297 298 298 301 306 306 305 307 308 308 309 309 310 312 309 307 307 310 312 311 311 314 316 317 324 327 328 331 333 334 335 335 336
297 297 298 300 302 302 304 304 304 305 306 306 308 305 300 300 301 307 308 306 304 307 313 315 317 323 326 328 331 332 334 335 336
298 297 297 299 300 302 301 301 302 301 300 300 299 298 298 298 299 305 304 304 305 303 304 313 316 319 324 326 328 330 332 333 335
297 297 297 297 298 300 300 301 300 300 298 299 299 299 299 301 302 302 303 304 303 301 303 309 313 316 319 322 326 328 329 331 333
297 298 297 298 299 299 300 301 301 301 301 301 301 300 301 301 301 302 302 303 305 305 306 308 310 314 316 319 322 325 327 328 329
299 298 299 299 299 300 300 301 301 300 300 300 300 300 300 300 300 301 302 303 304 305 306 307 309 312 314 316 318 321 324 325 327
298 298 298 298 299 299 300 300 300 300 300 300 300 300 299 299 300 301 302 303 303 305 306 307 308 310 312 314 316 317 319 322 325
298 298 298 299 299 299 299 299 299 299 299 299 299 299 299 299 299 300 301 302 303 304 305 306 307 309 311 314 315 315 318 320 322
297 298 298 299 299 298 297 298 298 298 298 298 299 299 299 299 299 300 300 301 302 303 304 304 306 308 309 312 314 314 316 318 319
297 298 298 298 297 297 296 297 297 297 298 298 299 300 300 300 300 300 300 301 301 302 303 304 305 307 308 310 313 314 315 317 319
298 298 298 297 296 297 296 297 297 297 297 298 299 300 300 300 300 300 300 300 301 301 302 303 304 305 306 307 312 314 314 314 317
297 298 298 297 297 297 297 297 297 297 297 298 298 298 299 299 300 300 300 300 299 300 300 302 303 304 306 307 309 312 312 313 315
297 298 297 297 297 297 297 298 297 297 297 297 298 298 298 298 300 300 300 299 299 299 299 300 301 303 304 305 307 311 312 312 314
296 297 297 296 296 297 297 298 298 298 298 297 298 299 299 300 300 300 300 299 300 298 299 300 301 303 303 304 306 310 311 311 312
296 296 296 296 296 296 296 297 298 297 298 299 298 299 299 300 299 299 299 299 298 299 299 301 301 301 303 304 306 308 310 312 316
296 296 296 296 296 296 295 295 296 296 297 297 297 298 297 298 297 298 298 299 298 299 300 301 301 302 303 304 306 307 308 314 319
296 296 296 296 296 295 294 295 295 296 296 296 297 298 297 297 298 297 298 298 298 300 300 302 301 303 304 304 305 307 313 319 322
297 297 297 296 296 296 295 294 294 294 294 295 296 296 297 296 298 297 297 298 298 300 302 303 303 304 306 307 307 312 317 319 320
297 297 296 296 296 296 296 295 295 294 294 294 294 295 295 295 297 297 297 298 297 300 301 302 304 305 307 308 310 314 314 314 310

GFSFLT1_850_thetae_291.txt.gz
Theta_e
302 302 306 307 307 307 308 307 308 308 308 309 310 311 309 307 300 300 301 302 304 311 313 311 314 315 326 329 330 332 333 334 336
302 302 303 305 306 306 307 306 307 307 307 307 307 307 303 300 299 299 299 300 302 308 312 313 312 312 315 325 328 329 331 332 333
303 304 300 305 306 306 306 306 306 307 307 306 305 306 305 301 300 301 301 301 304 309 310 310 311 312 313 316 324 327 329 330 332
302 302 303 305 305 305 305 306 306 306 306 305 305 306 305 302 300 301 301 301 306 308 309 310 310 311 313 314 317 323 326 329 330
301 301 303 304 304 304 305 305 305 304 303 303 303 304 301 299 299 299 300 304 307 308 309 310 310 311 312 313 315 316 321 325 328
298 298 301 302 303 302 302 302 302 301 298 299 301 300 299 299 298 298 299 304 307 308 308 309 309 310 311 312 313 314 316 320 322
296 296 299 298 299 298 298 297 298 298 298 297 298 298 298 298 298 298 299 302 305 306 307 308 308 309 310 311 312 313 314 316 318
296 297 297 297 297 296 296 296 296 297 296 297 297 298 299 299 299 299 300 302 304 306 307 307 308 308 309 309 310 311 312 315 315
297 298 297 297 296 296 296 296 296 296 296 297 297 298 299 299 299 299 300 302 303 304 305 306 307 308 309 309 309 310 311 312 315
296 297 298 297 296 295 296 297 297 297 297 296 297 297 298 298 299 299 299 300 302 303 305 305 305 306 307 308 309 309 310 311 314
297 297 297 297 296 294 295 296 297 297 297 297 297 297 297 299 299 298 298 299 301 302 302 303 304 304 306 307 308 308 309 309 311
297 297 297 297 296 295 294 294 295 296 296 297 297 297 297 298 299 299 300 299 300 299 300 301 302 304 303 305 306 307 309 309 310
297 296 296 296 296 296 295 294 294 295 296 296 296 297 297 297 298 299 299 298 298 298 298 299 300 301 302 304 305 307 307 307 309
297 296 296 296 296 295 295 295 294 295 295 295 295 295 296 297 298 298 297 297 297 297 297 297 298 299 300 303 305 306 307 307 307
297 296 296 296 296 295 295 295 295 294 294 293 293 294 296 296 298 297 296 297 296 297 297 297 299 299 300 301 302 305 306 308 309
296 296 297 296 296 296 296 295 295 295 294 294 294 293 293 294 293 295 295 296 296 297 297 298 299 300 301 301 300 301 305 306 306
296 296 296 296 296 296 296 295 295 295 295 294 293 293 293 292 293 294 295 295 296 296 297 299 300 300 301 303 303 303 302 305 307
296 296 295 295 296 296 295 295 295 295 295 295 294 293 293 293 293 293 294 294 296 296 297 298 300 300 300 303 303 303 303 305 307
296 295 295 295 295 295 296 296 296 295 295 295 294 294 293 293 294 294 294 295 296 297 297 297 298 299 300 301 303 304 308 305 309
296 295 295 294 295 295 296 296 296 296 295 295 294 294 293 293 294 295 295 296 295 296 297 297 296 298 300 301 302 304 307 309 312

GFSFLT1_850_thetae_297.txt.gz
Theta_e
308 307 307 308 309 309 310 309 310 310 311 311 311 311 311 307 303 300 300 300 300 308 313 313 313 313 314 314 317 325 330 332 334
307 306 308 309 308 309 309 310 310 310 309 309 309 310 309 306 302 301 300 300 302 311 312 312 313 313 314 314 315 318 325 329 331
303 304 307 307 308 308 308 308 308 307 305 305 306 308 307 303 299 299 299 300 307 311 312 312 312 313 313 314 315 316 318 323 327
298 300 305 307 306 305 305 305 306 304 300 302 303 303 300 298 298 298 298 300 307 310 311 311 312 312 313 313 314 314 315 318 322
297 299 303 303 297 298 299 301 301 299 297 297 297 297 297 298 298 298 298 305 306 308 310 310 310 311 311 312 313 313 314 315 317
297 298 297 297 296 296 296 296 296 296 296 296 296 297 297 298 298 298 298 304 307 308 308 309 310 311 311 312 312 312 313 313 314
297 297 297 297 296 295 296 296 296 296 297 296 296 297 297 297 298 298 298 301 306 308 308 308 309 309 311 311 312 312 314 314 313
297 298 297 297 296 295 295 295 296 296 297 297 296 296 296 297 297 297 297 299 303 305 307 308 308 308 309 309 310 311 311 312 314
297 297 297 297 296 296 295 295 294 294 295 295 296 296 296 296 296 297 297 297 303 305 307 306 306 307 307 308 308 309 310 311 311
297 297 297 297 296 296 296 296 295 295 295 295 295 295 296 296 297 297 297 298 301 302 303 305 305 305 306 307 307 308 308 309 310
297 297 297 297 297 296 296 296 296 295 295 295 294 294 294 296 296 297 297 297 298 299 301 301 302 303 304 306 306 306 307 308 309
297 297 297 297 297 297 297 296 296 296 296 295 295 295 294 294 296 297 297 298 297 297 297 298 301 302 302 304 306 305 308 308 308
297 297 297 297 297 297 297 297 297 297 297 296 296 295 294 295 295 296 297 297 297 297 296 296 297 299 300 304 306 306 307 307 308
296 296 296 296 296 296 296 296 296 297 296 296 296 295 293 293 293 293 294 294 295 295 295 296 296 297 300 302 303 305 305 307 307
296 296 296 295 295 296 296 296 296 296 296 296 296 295 294 294 294 294 294 294 294 295 296 296 297 298 299 299 301 303 305 305 306
296 296 295 295 295 295 295 296 296 296 296 296 296 296 295 295 294 293 294 294 295 296 296 296 297 297 297 298 298 301 302 303 306
296 295 295 295 294 294 294 296 296 296 295 295 295 295 295 294 294 294 294 294 295 295 296 296 296 296 296 298 299 299 301 304 305
296 296 295 295 294 294 294 294 295 296 295 295 294 294 294 293 294 295 294 295 294 296 296 296 295 295 295 298 299 300 302 303 304
296 296 295 295 294 294 294 295 295 295 295 295 294 294 294 293 293 293 293 294 294 295 295 295 296 295 295 298 299 301 302 303 305
296 295 295 295 295 294 294 294 295 296 295 295 295 294 294 294 293 293 294 294 295 294 294 295 296 295 295 297 299 300 302 303 304

GFSFLT1_850_thetae_303.txt.gz
Theta_e
309 310 310 311 310 310 310 310 310 308 309 308 309 309 307 299 300 300 301 300 308 314 314 314 314 315 315 316 315 313 323 330 331
307 309 311 309 307 309 308 309 307 307 307 306 308 305 298 298 298 298 299 300 308 313 315 314 314 315 315 315 316 316 317 320 328
306 307 308 305 305 306 307 305 305 301 303 304 303 298 297 298 298 298 298 299 309 311 312 312 313 313 314 314 315 315 316 317 318
299 299 304 301 303 304 304 303 301 298 297 298 299 297 297 297 297 298 298 301 309 311 311 311 312 313 313 314 315 316 316 316 316
298 299 299 298 298 298 297 299 297 297 297 297 297 297 297 297 297 297 297 298 307 310 311 311 311 311 312 313 314 314 314 315 316
298 298 298 298 298 298 298 297 297 297 297 296 296 296 297 297 297 297 299 304 307 307 309 309 310 310 312 312 312 313 313 313 314
298 298 298 298 298 298 298 298 297 297 297 297 297 296 296 296 296 296 300 304 306 308 308 308 309 310 310 310 310 311 311 312 312
298 298 298 298 298 298 298 298 298 297 297 297 297 296 296 296 296 296 296 301 305 306 306 307 308 308 308 308 309 309 310 311 311
297 298 298 298 298 298 298 298 297 297 297 297 297 296 296 295 295 295 296 296 299 303 305 305 305 305 306 307 308 308 309 309 310
297 297 297 297 297 297 297 297 297 297 297 297 297 297 296 295 295 295 294 295 296 298 300 302 303 304 304 306 306 307 307 309 309
297 297 297 297 297 297 297 297 297 297 297 297 297 297 296 295 295 295 294 294 293 294 294 298 301 303 303 304 305 306 307 309 309
297 297 297 297 296 296 297 297 297 297 297 297 297 297 296 296 296 295 295 295 295 294 294 294 299 300 302 303 304 305 306 307 308
297 297 296 296 296 296 296 296 297 297 297 297 297 296 296 295 295 295 295 295 295 295 294 295 295 297 301 302 303 303 303 305 306
297 296 296 296 296 296 296 296 296 297 296 297 297 296 296 295 295 295 295 295 295 295 295 295 296 296 298 300 301 303 304 304 306
297 296 296 296 295 295 296 296 295 296 296 297 297 297 296 295 295 295 295 295 295 295 295 295 295 296 295 296 296 301 303 305 305
297 296 296 296 296 295 296 296 296 296 297 297 298 297 296 295 295 294 294 295 295 295 295 295 295 295 295 296 295 298 300 303 305
297 296 296 296 296 295 295 295 295 295 296 295 296 296 296 295 295 294 294 294 294 295 294 295 295 295 295 295 295 296 299 302 302
297 296 296 296 296 295 295 295 295 295 295 295 295 296 296 294 294 294 294 293 294 294 294 294 294 294 294 295 295 295 298 300 300
297 296 296 296 296 295 295 295 295 294 294 295 295 295 295 295 295 295 294 293 293 294 293 293 293 293 293 293 295 295 296 297 298
297 296 296 296 296 295 295 295 295 294 294 294 295 295 295 295 294 295 294 293 294 293 294 294 293 293 292 293 294 294 295 295 297

GFSFLT1_850_thetae_306.txt.gz
Theta_e
310 312 311 309 310 309 310 309 309 308 308 309 310 300 298 299 299 299 301 305 312 315 317 316 316 316 317 317 317 317 317 326 330
310 310 308 307 308 309 308 309 306 306 306 306 305 298 298 298 299 299 301 305 311 313 314 314 314 315 315 316 316 317 317 317 320
302 307 305 306 306 305 306 306 305 299 300 302 300 298 298 298 298 298 300 300 309 313 313 313 314 314 314 315 317 318 318 318 318
299 299 299 299 299 299 299 299 298 298 298 298 298 297 298 298 298 299 304 299 307 311 312 313 313 314 314 315 315 315 316 317 317
299 299 299 299 298 298 298 299 299 299 298 298 298 298 298 297 298 300 305 306 309 310 310 311 311 313 313 313 313 314 313 315 315
299 299 298 298 298 298 298 298 298 298 298 298 298 298 297 298 298 301 299 306 308 310 310 311 310 311 311 312 312 312 313 313 313
298 298 298 298 298 298 298 298 298 298 298 298 298 298 297 298 299 299 296 302 307 308 308 309 310 310 310 310 310 311 311 311 313
298 298 298 298 298 298 298 298 298 298 298 298 298 298 297 297 298 298 296 300 303 305 306 307 307 307 307 308 309 309 310 311 310
298 298 298 298 298 298 298 298 298 298 298 298 297 298 297 297 297 297 296 295 298 303 303 304 305 305 306 306 308 308 308 309 310
298 298 298 298 297 297 297 297 298 297 298 298 297 297 297 296 297 296 296 296 296 295 299 301 303 304 305 305 306 306 308 309 310
297 297 297 297 297 297 297 297 298 297 297 298 298 297 297 297 297 297 297 296 296 296 295 300 302 303 303 305 305 306 307 307 308
297 297 297 297 297 297 297 297 297 297 298 298 298 297 297 296 296 296 297 296 296 296 295 296 299 300 302 303 304 305 306 306 307
297 297 297 297 297 296 296 297 297 297 298 298 298 298 297 296 296 296 296 297 296 297 296 295 295 295 300 301 303 303 304 306 307
297 297 297 297 296 296 296 297 297 297 297 298 298 297 297 296 296 296 296 296 297 297 297 296 296 296 298 299 301 301 304 304 305
297 297 297 296 296 296 296 296 296 297 297 298 298 297 296 296 297 296 296 296 296 297 297 297 297 297 297 298 298 301 301 303 304
297 297 297 297 296 296 296 296 296 297 297 299 299 299 298 296 297 297 296 296 296 297 297 297 297 297 297 297 297 298 299 302 303
297 297 297 296 296 296 296 296 296 298 297 297 299 300 299 298 298 297 297 296 296 296 297 297 296 296 296 296 296 296 297 300 302
298 297 297 296 296 296 296 296 296 296 298 296 297 299 300 298 298 298 297 297 296 296 297 297 296 296 296 296 296 296 297 298 298
298 297 297 297 296 296 296 296 296 295 297 297 297 297 297 297 298 298 298 297 297 297 296 297 297 296 296 295 295 295 296 297 296
298 297 297 297 296 296 296 296 296 295 295 297 298 298 298 297 297 296 297 298 297 297 297 297 297 296 295 295 295 295 296 294 294